User: anonymous   Login
Location: Caltech
(34.1382°N, 118.1253°W)
Time: 10:27:12
(UTC-07:00)
Language:

NOSS 3-4 (C) - Orbit

View from above orbital plane
View from above orbital plane
View from above satellite
View from above satellite

Ground track
Ground track

The orbit data is extracted from the following two-line orbital elements,

1 31708U 07027C   17110.13993339 0.00000000  00000-0  00000-0 0    08
2 31708  63.4010 231.6116 0185000  24.6261 335.3739 13.40729386    06
Epoch (UTC): 20 April 2017 03:21:30
Eccentricity: 0.0185000
inclination: 63.4010°
perigee height: 968 km
apogee height: 1245 km
right ascension of ascending node: 231.6116°
argument of perigee: 24.6261°
revolutions per day: 13.40729386
mean anomaly at epoch: 335.3739°
orbit number at epoch: 0

The dashed part of the orbit path shows where the satellite is in the earth's shadow,  

DLR